[[{"header":{"parameterUnit":"m.s-1","parameterCategory":1,"la1":30.2991,"la2":30.254,"lo1":-89.0895,"lo2":-89.0444,"dy":0.0017,"dx":0.0017,"nx":28,"ny":28,"refTime":"2024-04-24T21:00:00:Z","depth":0,"parameterNumber":2,"parameterNumberName":"U-component_of_WINDS"},"data":[0,0,0,0,0,0,0,0,0,0,0,0,0,0,0,0,0,0,0,0,0,0,0,0,0,0,0,0,0,0,0,0,0,0,0,0,0,0,0,0,0,0,0,0,0,0,0,0,0,0,0,0,0,0,0,0,0,0,1.9934,1.9935,0,2.003,2.0031,2.0032,2.002,2.0019,2.0017,2.0016,2.0114,2.0118,2.0122,0,0,0,0,0,0,0,0,0,0,0,0,0,1.974,1.9743,1.9934,1.9935,1.9936,2.0029,2.0031,2.0032,2.0021,2.0019,2.0017,2.0015,2.0113,2.0118,2.0123,0,0,0,0,0,0,0,0,0,0,0,0,0,1.9829,1.9744,1.9934,1.9942,1.9943,2.0029,2.0031,2.0032,2.0021,2.0019,2.0016,2.0014,2.0111,2.0117,2.0123,2.0207,0,0,2.0142,2.0145,0,0,0,0,0,0,0,0,1.9824,1.9836,1.9939,1.9941,1.9943,2.0011,1.9998,2.0091,2.0022,1.9992,2.0016,2.0013,2.0082,2.009,2.0113,2.0212,2.0216,2.0143,2.0146,2.0149,2.0151,0,0,0,0,0,0,0,1.9817,1.9832,1.9972,1.9941,1.9943,1.994,1.995,2.0016,2.0049,1.9994,1.9993,2.0005,2.0082,2.0107,2.0115,2.0218,2.0142,2.0148,2.0152,2.0154,2.0387,2.039,0,0,0,0,0,0,1.9809,1.9826,1.9969,1.9975,1.9876,1.9945,1.9957,1.9991,2.0048,2.0054,2.0007,2.0004,2.0098,2.0108,2.0119,2.0219,2.0149,2.0155,2.0158,2.0385,2.0388,2.0391,0,0,0,0,0,0,1.9805,1.9822,1.9965,1.99,1.9918,1.9951,1.999,1.9995,2.0019,2.0057,2.0063,2.0026,2.0097,2.011,2.0185,2.0222,2.0157,2.0163,2.0382,2.0386,2.0389,2.042,0,0,0,0,0,0,1.98,1.9821,1.9853,1.9901,1.9922,2.0029,1.9993,1.9998,2.003,2.0027,2.0077,2.0083,2.0096,2.0176,2.0191,2.0229,2.0168,2.0379,2.0384,2.0388,2.0416,2.0425,2.0432,0,0,0,0,0,1.9793,1.9859,1.9855,1.9872,1.9963,2.0032,2.0043,2.0056,2.0033,2.0066,2.009,2.0082,2.0216,2.0184,2.02,2.0241,2.0376,2.0382,2.0388,2.0413,2.0423,2.0432,0,0,0,0,0,0,1.9815,1.9865,1.9862,1.9945,1.9984,2.003,2.0071,2.0068,2.0114,2.011,2.0124,2.0135,2.021,2.0234,2.0196,2.0324,2.0293,2.0302,2.0306,2.0316,2.0324,2.0316,2.0173,0,0,0,0,0,1.983,1.9881,1.9923,1.9992,2.0012,2.0038,2.0069,2.0075,2.0116,2.0132,2.0162,2.0202,2.0253,2.0286,2.0335,2.042,2.0429,2.0456,2.0464,2.0471,2.0478,2.0522,2.0533,2.0409,2.0409,2.0409,0,0,1.9861,1.9894,1.9926,1.9998,2.0028,2.008,2.0052,2.0109,2.0148,2.0141,2.0212,2.0236,2.0281,2.036,2.0397,2.0382,2.0514,2.0478,2.0483,2.0487,2.0529,2.054,2.0551,2.0413,2.0413,2.0412,0,0,1.9943,1.9975,2.0035,2.0066,2.0113,2.013,2.0144,2.019,2.0205,2.0276,2.0272,2.0318,2.0406,2.0438,2.0465,2.0558,2.0551,2.0574,2.0615,2.0657,2.0667,2.0676,2.0706,2.0717,2.0581,2.0581,2.0581,0,1.9975,2.0054,2.0066,2.0123,2.0154,2.015,2.021,2.024,2.0301,2.0322,2.0305,2.0413,2.0444,2.0529,2.0551,2.0575,2.059,2.0567,2.0665,2.0673,2.0682,2.0711,2.0723,2.0583,2.0583,2.0583,2.0583,0,2.009,2.0144,2.0187,2.0245,2.028,2.0339,2.036,2.0394,2.0398,2.0416,2.0488,2.0524,2.0579,2.0601,2.0605,2.0686,2.0675,2.0661,2.063,2.0695,2.0723,2.0735,2.0587,2.0586,2.0585,2.0585,0,0,2.0189,2.0251,2.0267,2.0291,2.0342,2.0384,2.0442,2.0495,2.0524,2.0566,2.0613,2.0687,2.0674,2.0705,2.0713,2.0751,2.0818,2.0732,2.0733,2.0745,2.0907,2.0915,2.0928,2.0815,2.0817,2.0819,2.0902,0,2.0274,2.0375,2.0388,2.0478,2.0527,2.0523,2.0573,2.0609,2.0628,2.0672,2.0692,2.0743,2.0723,2.0742,2.0779,2.0802,2.0851,2.0797,2.0858,2.086,2.0844,2.0943,2.0953,2.1029,2.0913,2.0915,2.0917,0,2.0387,2.043,2.0525,2.0567,2.0588,2.0632,2.0681,2.0724,2.0764,2.0775,2.0809,2.0811,2.087,2.0837,2.0917,2.088,2.0906,2.092,2.0924,2.0928,2.0891,2.0948,2.1055,2.1065,2.0934,2.0933,2.0932,0,2.0446,2.0529,2.0595,2.0617,2.0668,2.0699,2.0722,2.076,2.0791,2.0833,2.0853,2.0902,2.0929,2.0967,2.0982,2.0957,2.106,2.1029,2.1069,2.1069,2.109,2.1088,2.1199,2.111,2.111,2.111,2.1109,0,2.0539,2.0596,2.0622,2.0663,2.0727,2.074,2.0803,2.0824,2.0858,2.0902,2.0903,2.0944,2.0963,2.1007,2.1019,2.1082,2.1095,2.1104,2.1106,2.1102,2.1101,2.1118,2.1112,2.1113,2.1112,2.1111,2.1111,0,2.0615,2.0635,2.0707,2.0749,2.0761,2.0806,2.0841,2.088,2.0898,2.0954,2.0968,2.0995,2.1047,2.1066,2.113,2.1138,2.121,2.1209,2.1196,2.1196,2.1234,2.1229,2.1359,2.1375,2.1277,2.1278,2.1279,0,2.0672,2.0716,2.0762,2.0791,2.0815,2.0862,2.0893,2.0908,2.094,2.0988,2.1021,2.1072,2.1113,2.1196,2.1222,2.127,2.1268,2.1311,2.1276,2.127,2.1266,2.1262,2.1266,2.1316,2.1317,2.1318,2.1319,0,2.077,2.0777,2.0821,2.0868,2.0905,2.0943,2.098,2.1004,2.1024,2.106,2.1112,2.1145,2.1208,2.1259,2.1307,2.133,2.1328,2.133,2.1341,2.1337,2.1327,2.133,2.1211,2.1326,2.1326,2.1325,2.1325,2.1324,2.0836,2.0874,2.0912,2.096,2.099,2.1024,2.1061,2.1083,2.1127,2.118,2.1186,2.1242,2.1279,2.1345,2.137,2.1413,2.1401,2.1418,2.1422,2.1426,2.1427,2.1321,2.1422,2.1422,2.1422,2.1422,2.1421,0,2.0932,2.0955,2.1,2.1051,2.1089,2.1083,2.1124,2.1155,2.1204,2.1239,2.128,2.1339,2.1387,2.1416,2.1465,2.1493,2.1493,2.1505,2.1502,2.1507,2.1436,2.142,2.1505,2.1505,2.1505,2.1505,2.1505,2.1505,2.0986,2.1048,2.106,2.1136,2.116,2.1214,2.1237,2.1268,2.1296,2.1362,2.1401,2.142,2.1452,2.1503,2.1546,2.1553,2.157,2.1583,2.1589,2.1521,2.1513,2.1504,2.1489,2.1587,2.1587,2.1656,2.1657,2.1657]},{"header":{"parameterUnit":"m.s-1","parameterCategory":1,"la1":30.2991,"la2":30.254,"lo1":-89.0895,"lo2":-89.0444,"dy":0.0017,"dx":0.0017,"nx":28,"ny":28,"refTime":"2024-04-24T21:00:00:Z","depth":0,"parameterNumber":3,"parameterNumberName":"V-component_of_WINDS"},"data":[0,0,0,0,0,0,0,0,0,0,0,0,0,0,0,0,0,0,0,0,0,0,0,0,0,0,0,0,0,0,0,0,0,0,0,0,0,0,0,0,0,0,0,0,0,0,0,0,0,0,0,0,0,0,0,0,0,0,3.3466,3.3467,0,3.354,3.3541,3.3542,3.3498,3.3496,3.3494,3.3492,3.3563,3.3566,3.357,0,0,0,0,0,0,0,0,0,0,0,0,0,3.3279,3.3283,3.3466,3.3467,3.3468,3.354,3.3541,3.3542,3.3498,3.3496,3.3493,3.3491,3.3561,3.3566,3.357,0,0,0,0,0,0,0,0,0,0,0,0,0,3.3357,3.3284,3.3466,3.3455,3.3454,3.354,3.3541,3.3542,3.3499,3.3496,3.3493,3.349,3.356,3.3565,3.3571,3.367,0,0,3.3589,3.3591,0,0,0,0,0,0,0,0,3.3353,3.3364,3.3455,3.3456,3.3455,3.3507,3.3501,3.3585,3.35,3.3482,3.3492,3.3488,3.3546,3.3553,3.3574,3.3673,3.3676,3.3589,3.3593,3.3595,3.3597,0,0,0,0,0,0,0,3.3348,3.3361,3.3495,3.3457,3.3457,3.3444,3.3451,3.3517,3.3531,3.3483,3.348,3.349,3.3546,3.3568,3.3575,3.3677,3.3589,3.3594,3.3598,3.36,3.386,3.3863,0,0,0,0,0,0,3.3344,3.3357,3.3493,3.3497,3.3396,3.345,3.3458,3.3493,3.353,3.3532,3.3492,3.3488,3.356,3.3568,3.3577,3.3694,3.3595,3.3601,3.3604,3.3856,3.386,3.3864,0,0,0,0,0,0,3.334,3.3356,3.349,3.3426,3.3442,3.3456,3.3496,3.3496,3.3519,3.3537,3.3539,3.3514,3.3558,3.3569,3.3647,3.3696,3.3603,3.3608,3.3852,3.3857,3.3862,3.393,0,0,0,0,0,0,3.3335,3.3355,3.3395,3.3427,3.3446,3.356,3.3499,3.35,3.353,3.3524,3.3557,3.3559,3.3556,3.3639,3.3653,3.3702,3.3613,3.3848,3.3854,3.3861,3.3923,3.3936,3.3948,0,0,0,0,0,3.3328,3.341,3.3397,3.3413,3.3496,3.3563,3.3574,3.357,3.3534,3.3572,3.3584,3.3558,3.3689,3.3647,3.3663,3.3715,3.3845,3.3853,3.386,3.3917,3.3934,3.3948,0,0,0,0,0,0,3.338,3.3414,3.34,3.3495,3.3527,3.3556,3.3604,3.3587,3.3629,3.3621,3.3613,3.3621,3.3702,3.3716,3.3669,3.3811,3.3761,3.3772,3.3799,3.3815,3.3827,3.3821,3.3618,0,0,0,0,0,3.3403,3.3458,3.3483,3.3564,3.3581,3.359,3.362,3.3614,3.3646,3.3659,3.3676,3.3706,3.3753,3.3785,3.383,3.3925,3.393,3.3968,3.398,3.3991,3.4,3.405,3.4066,3.3889,3.3889,3.3889,0,0,3.345,3.3475,3.351,3.3575,3.3599,3.3654,3.3602,3.3662,3.3701,3.3667,3.3742,3.3756,3.3789,3.3875,3.3914,3.389,3.405,3.4,3.4008,3.4012,3.4059,3.4076,3.4091,3.3895,3.3894,3.3893,0,0,3.3564,3.3589,3.3659,3.3685,3.3722,3.3728,3.3744,3.3776,3.3784,3.386,3.3835,3.3881,3.3963,3.3988,3.4011,3.4133,3.411,3.4147,3.4212,3.426,3.4274,3.4287,3.4329,3.4344,3.4157,3.4157,3.4157,0,3.3617,3.37,3.3697,3.3759,3.3787,3.3761,3.383,3.3854,3.3904,3.3923,3.3895,3.3997,3.4018,3.4109,3.4139,3.4159,3.4176,3.4143,3.4273,3.4285,3.4297,3.4337,3.4353,3.4161,3.4161,3.416,3.416,0,3.3763,3.3821,3.3872,3.3923,3.3957,3.4023,3.4027,3.4062,3.4053,3.406,3.4136,3.416,3.4208,3.423,3.4221,3.432,3.4303,3.4274,3.4223,3.4318,3.4355,3.4371,3.4167,3.4166,3.4164,3.4163,0,0,3.3912,3.3959,3.3978,3.4,3.404,3.4083,3.4146,3.4195,3.4225,3.4259,3.4311,3.4381,3.4355,3.4381,3.4374,3.4417,3.451,3.4383,3.4383,3.4405,3.4619,3.4639,3.4657,3.4496,3.4499,3.4501,3.4615,0,3.4027,3.414,3.4138,3.4241,3.4293,3.4268,3.4323,3.4351,3.436,3.4404,3.4412,3.4462,3.4424,3.4439,3.4481,3.4491,3.4553,3.4482,3.4542,3.4544,3.4534,3.4677,3.47,3.4806,3.463,3.4633,3.4634,0,3.4177,3.4218,3.4327,3.4358,3.438,3.443,3.4474,3.4517,3.4548,3.4551,3.458,3.4567,3.4628,3.4576,3.466,3.4612,3.4636,3.4644,3.4648,3.4653,3.4594,3.4684,3.484,3.4856,3.4658,3.4656,3.4654,0,3.4272,3.4355,3.4431,3.4451,3.4489,3.4524,3.4541,3.457,3.4599,3.4637,3.4655,3.4699,3.4723,3.4757,3.4754,3.4717,3.4839,3.4787,3.4841,3.4841,3.4867,3.4866,3.5028,3.4885,3.4884,3.4884,3.4884,0,3.4401,3.4468,3.4475,3.4522,3.4596,3.4592,3.4664,3.4677,3.4703,3.475,3.473,3.4774,3.4769,3.4813,3.4811,3.488,3.4891,3.4893,3.4892,3.4895,3.4894,3.491,3.4902,3.4888,3.4887,3.4887,3.4886,0,3.452,3.4528,3.4609,3.4638,3.4647,3.47,3.4725,3.4768,3.4774,3.4834,3.4847,3.4858,3.4908,3.4909,3.4967,3.4965,3.5049,3.5039,3.5039,3.5037,3.5091,3.5085,3.5268,3.5291,3.5133,3.5135,3.5136,0,3.4601,3.4653,3.4689,3.472,3.4739,3.4789,3.482,3.4817,3.4849,3.4888,3.4925,3.4974,3.5013,3.5094,3.5105,3.5148,3.5139,3.52,3.5145,3.5146,3.5139,3.5135,3.514,3.5211,3.5212,3.5214,3.5215,0,3.4744,3.4745,3.4791,3.4837,3.4874,3.491,3.4943,3.4969,3.497,3.5006,3.5059,3.5089,3.5148,3.5196,3.5238,3.5253,3.5233,3.5232,3.5247,3.525,3.5247,3.5248,3.5067,3.5228,3.5227,3.5226,3.5225,3.5224,3.4846,3.489,3.4922,3.4973,3.4998,3.503,3.5071,3.5084,3.5128,3.5177,3.5172,3.523,3.5258,3.5312,3.5331,3.5374,3.5353,3.5374,3.5379,3.5385,3.539,3.5241,3.5382,3.5381,3.5381,3.5381,3.538,0,3.4987,3.5006,3.5053,3.5101,3.514,3.5121,3.5157,3.519,3.5242,3.5271,3.531,3.5368,3.5415,3.5429,3.5474,3.5505,3.5497,3.5517,3.5514,3.5517,3.5407,3.539,3.5522,3.5522,3.5522,3.5522,3.5522,3.5522,3.5064,3.5138,3.5143,3.5228,3.5246,3.5304,3.5325,3.5353,3.5376,3.5444,3.5483,3.5493,3.5515,3.5561,3.5602,3.5605,3.5621,3.5644,3.5643,3.554,3.5525,3.5512,3.5495,3.5648,3.5648,3.575,3.5751,3.5751]}]]